• In Hungary
  • List of Countries
  • For 7 days
  • Water Temperature
  • Satellite Maps
  • Weather Map
  • News
  • Weather Widgets
  • user-avatar
    Login

    Hourly Weather Petrozavodsk

    Today, 25 September, Tuesday

    Time Temperature Precipitation Wind Pressure Humidity
    00:00 +4°C° 0 mm 2 mps 735 mmHg 89%
    01:00 +4°C° 0 mm 2 mps 735 mmHg 89%
    02:00 +3°C° 0 mm 2 mps 735 mmHg 91%
    03:00 +3°C° 0 mm 2 mps 735 mmHg 92%
    04:00 +3°C° 0 mm 2 mps 735 mmHg 92%
    05:00 +2°C° 0 mm 3 mps 736 mmHg 93%
    06:00 +2°C° 0 mm 3 mps 736 mmHg 90%
    07:00 +3°C° 0 mm 4 mps 736 mmHg 87%
    08:00 +4°C° 0 mm 4 mps 736 mmHg 83%
    09:00 +5°C° 0 mm 5 mps 737 mmHg 77%
    10:00 +6°C° 0 mm 5 mps 737 mmHg 72%
    11:00 +7°C° 0 mm 5 mps 737 mmHg 66%
    12:00 +7°C° 0 mm 5 mps 738 mmHg 66%
    13:00 +7°C° 0 mm 5 mps 738 mmHg 66%
    14:00 +6°C° 0 mm 5 mps 739 mmHg 65%
    15:00 +6°C° 0 mm 5 mps 739 mmHg 66%
    16:00 +6°C° 0 mm 5 mps 740 mmHg 67%
    17:00 +5°C° 0 mm 5 mps 740 mmHg 67%
    18:00 +5°C° 0 mm 5 mps 740 mmHg 67%
    19:00 +3°C° 0 mm 5 mps 741 mmHg 66%
    20:00 +2°C° 0 mm 5 mps 741 mmHg 66%
    21:00 +1°C° 0 mm 4 mps 741 mmHg 67%
    22:00 0°C° 0 mm 4 mps 742 mmHg 69%
    23:00 0°C° 0 mm 3 mps 742 mmHg 70%

    Tomorrow, 26 September, Wednesday

    Time Temperature Precipitation Wind Pressure Humidity
    00:00 +1°C° 0 mm 3 mps 742 mmHg 71%
    01:00 +1°C° 0 mm 3 mps 742 mmHg 72%
    02:00 +1°C° 0 mm 3 mps 742 mmHg 73%
    03:00 +2°C° 0 mm 3 mps 741 mmHg 77%
    04:00 +1°C° 0 mm 4 mps 741 mmHg 81%
    05:00 +3°C° 0 mm 4 mps 741 mmHg 85%
    06:00 +4°C° 0 mm 4 mps 740 mmHg 83%
    07:00 +5°C° 0 mm 4 mps 740 mmHg 81%
    08:00 +7°C° 0 mm 5 mps 740 mmHg 80%
    09:00 +7°C° 0.1 mm 5 mps 739 mmHg 78%
    10:00 +8°C° 0.1 mm 6 mps 739 mmHg 76%
    11:00 +9°C° 0.1 mm 7 mps 738 mmHg 74%
    12:00 +7°C° 0.6 mm 8 mps 737 mmHg 77%
    13:00 +7°C° 0.6 mm 8 mps 735 mmHg 79%
    14:00 +6°C° 0.6 mm 9 mps 734 mmHg 81%
    15:00 +6°C° 0.9 mm 9 mps 732 mmHg 83%
    16:00 +6°C° 0.9 mm 10 mps 731 mmHg 85%
    17:00 +5°C° 0.9 mm 10 mps 729 mmHg 87%
    18:00 +6°C° 1.7 mm 9 mps 728 mmHg 88%
    19:00 +6°C° 1.7 mm 9 mps 727 mmHg 89%
    20:00 +6°C° 1.7 mm 8 mps 726 mmHg 90%
    21:00 +5°C° 1.1 mm 7 mps 725 mmHg 89%
    22:00 +5°C° 1.1 mm 6 mps 725 mmHg 88%
    23:00 +6°C° 1.1 mm 5 mps 724 mmHg 87%

    Day after tomorrow, 27 September, Thursday

    Time Temperature Precipitation Wind Pressure Humidity
    00:00 +5°C° 0 mm 5 mps 724 mmHg 87%
    01:00 +3°C° 0 mm 5 mps 724 mmHg 86%
    02:00 +3°C° 0 mm 5 mps 724 mmHg 86%
    03:00 +2°C° 0 mm 5 mps 724 mmHg 85%
    04:00 +2°C° 0 mm 5 mps 724 mmHg 85%
    05:00 +2°C° 0 mm 5 mps 724 mmHg 84%
    06:00 +2°C° 0 mm 5 mps 724 mmHg 81%
    07:00 +3°C° 0 mm 6 mps 724 mmHg 79%
    08:00 +3°C° 0 mm 6 mps 724 mmHg 76%
    09:00 +4°C° 0.1 mm 7 mps 724 mmHg 73%
    10:00 +4°C° 0.1 mm 7 mps 724 mmHg 70%
    11:00 +5°C° 0.1 mm 7 mps 724 mmHg 66%
    12:00 +5°C° 0.2 mm 7 mps 724 mmHg 69%
    13:00 +4°C° 0.2 mm 7 mps 724 mmHg 73%
    14:00 +4°C° 0.2 mm 7 mps 725 mmHg 76%
    15:00 +4°C° 0.2 mm 7 mps 725 mmHg 77%
    16:00 +4°C° 0.2 mm 8 mps 726 mmHg 79%
    17:00 +4°C° 0.2 mm 8 mps 727 mmHg 81%
    18:00 +4°C° 0.1 mm 8 mps 727 mmHg 80%
    19:00 +4°C° 0.1 mm 8 mps 728 mmHg 78%
    20:00 +2°C° 0.1 mm 8 mps 729 mmHg 77%
    21:00 +3°C° 0 mm 7 mps 730 mmHg 76%
    22:00 +2°C° 0 mm 7 mps 730 mmHg 75%
    23:00 +1°C° 0 mm 6 mps 731 mmHg 74%

    28 September, Friday

    Time Temperature Precipitation Wind Pressure Humidity
    00:00 +1°C° 0 mm 6 mps 731 mmHg 76%
    01:00 0°C° 0 mm 5 mps 731 mmHg 77%
    02:00 -1°C° 0 mm 5 mps 731 mmHg 79%
    03:00 -1°C° 0 mm 4 mps 731 mmHg 80%
    04:00 -2°C° 0 mm 4 mps 731 mmHg 80%
    05:00 -2°C° 0 mm 4 mps 731 mmHg 80%
    06:00 -2°C° 0 mm 4 mps 731 mmHg 77%
    07:00 -1°C° 0 mm 4 mps 731 mmHg 73%
    08:00 -1°C° 0 mm 4 mps 731 mmHg 69%
    09:00 0°C° 0 mm 4 mps 731 mmHg 65%
    10:00 +1°C° 0 mm 4 mps 732 mmHg 60%
    11:00 +3°C° 0 mm 4 mps 732 mmHg 56%
    12:00 +1°C° 0 mm 4 mps 732 mmHg 56%
    13:00 +1°C° 0 mm 5 mps 732 mmHg 57%
    14:00 +1°C° 0 mm 5 mps 733 mmHg 57%
    15:00 +1°C° 0.1 mm 5 mps 733 mmHg 59%
    16:00 0°C° 0.1 mm 5 mps 734 mmHg 60%
    17:00 0°C° 0.1 mm 5 mps 734 mmHg 61%
    18:00 -1°C° 0 mm 5 mps 735 mmHg 63%
    19:00 -1°C° 0 mm 5 mps 735 mmHg 66%
    20:00 -2°C° 0 mm 5 mps 736 mmHg 68%
    21:00 -2°C° 0 mm 5 mps 736 mmHg 69%
    22:00 -2°C° 0 mm 5 mps 737 mmHg 71%
    23:00 -2°C° 0 mm 5 mps 737 mmHg 72%

    29 September, Saturday

    Time Temperature Precipitation Wind Pressure Humidity
    00:00 -2°C° 0 mm 5 mps 738 mmHg 72%
    01:00 -4°C° 0 mm 5 mps 738 mmHg 73%
    02:00 -4°C° 0 mm 5 mps 739 mmHg 73%
    03:00 -4°C° 0 mm 5 mps 739 mmHg 74%
    04:00 -4°C° 0 mm 5 mps 740 mmHg 74%
    05:00 -5°C° 0 mm 5 mps 741 mmHg 74%
    06:00 -4°C° 0 mm 5 mps 741 mmHg 70%
    07:00 -2°C° 0 mm 5 mps 742 mmHg 66%
    08:00 -1°C° 0 mm 5 mps 743 mmHg 62%
    09:00 0°C° 0 mm 5 mps 743 mmHg 57%
    10:00 +1°C° 0 mm 5 mps 744 mmHg 52%
    11:00 +2°C° 0 mm 5 mps 744 mmHg 47%
    12:00 +2°C° 0 mm 5 mps 744 mmHg 46%
    13:00 +3°C° 0 mm 5 mps 745 mmHg 45%
    14:00 +3°C° 0 mm 5 mps 745 mmHg 43%
    15:00 +3°C° 0 mm 4 mps 745 mmHg 50%
    16:00 +1°C° 0 mm 4 mps 745 mmHg 56%
    17:00 +2°C° 0 mm 3 mps 745 mmHg 62%
    18:00 +1°C° 0 mm 3 mps 745 mmHg 65%
    19:00 +1°C° 0 mm 3 mps 745 mmHg 67%
    20:00 -1°C° 0 mm 4 mps 745 mmHg 70%
    21:00 0°C° 0 mm 4 mps 744 mmHg 71%
    22:00 0°C° 0 mm 4 mps 744 mmHg 71%
    23:00 +1°C° 0 mm 4 mps 744 mmHg 72%

    30 September, Sunday

    Time Temperature Precipitation Wind Pressure Humidity
    00:00 +1°C° 0.3 mm 4 mps 743 mmHg 77%
    01:00 +2°C° 0.3 mm 5 mps 743 mmHg 81%
    02:00 +2°C° 0.3 mm 5 mps 743 mmHg 85%
    03:00 +2°C° 0.1 mm 5 mps 742 mmHg 83%
    04:00 +2°C° 0.1 mm 5 mps 742 mmHg 81%
    05:00 +2°C° 0.1 mm 6 mps 741 mmHg 78%
    06:00 +2°C° 1 mm 6 mps 740 mmHg 82%
    07:00 +3°C° 1 mm 6 mps 740 mmHg 86%
    08:00 +3°C° 1 mm 6 mps 739 mmHg 89%
    09:00 +3°C° 1.5 mm 6 mps 739 mmHg 89%
    10:00 +4°C° 1.5 mm 6 mps 739 mmHg 89%
    11:00 +5°C° 1.5 mm 5 mps 739 mmHg 88%
    12:00 +6°C° 0.2 mm 5 mps 739 mmHg 86%
    13:00 +7°C° 0.2 mm 5 mps 739 mmHg 85%
    14:00 +7°C° 0.2 mm 5 mps 739 mmHg 83%
    15:00 +7°C° 0.1 mm 5 mps 739 mmHg 85%
    16:00 +7°C° 0.1 mm 4 mps 739 mmHg 86%
    17:00 +6°C° 0.1 mm 4 mps 739 mmHg 88%
    18:00 +6°C° 0.2 mm 4 mps 739 mmHg 89%
    19:00 +6°C° 0.2 mm 4 mps 739 mmHg 90%
    20:00 +5°C° 0.2 mm 4 mps 739 mmHg 91%
    21:00 +5°C° 0.1 mm 4 mps 739 mmHg 90%
    22:00 +5°C° 0.1 mm 4 mps 738 mmHg 90%
    23:00 +5°C° 0.1 mm 4 mps 738 mmHg 89%
    Show more